Location: Ponte Samoggia
(44.5667°N, 11.1333°E)
Time: 00:02:30
(UTC+00:00)

SL-16 R/B - Pass Details

Date: 26 May 2022
Orbit: 986 x 1006 km, 99.6° (Epoch: 26 June)

Event Time Altitude Azimuth Distance (km) Brightness Sun altitude
Exits shadow 02:59:48 - 239° (WSW) 2,996 4.4 -6.4°
Reaches altitude 10° 03:01:12 10° 250° (WSW) 2,760 4.3 -6.2°
Maximum altitude 03:03:38 12° 273° (W) 2,592 4.3 -5.8°
Drops below altitude 10° 03:06:05 10° 297° (WNW) 2,773 4.6 -5.5°
Sets 03:10:27 0° 326° (NW) 3,734 5.6 -4.9°
